| time (UTC) | temp F | wind direction | speed MPH | gust MPH | rain 1hr in | rain 24hr in | rain mn in | humidity % | barometer mb |
| 20260507000803 | 50 | 257 | 1.0 | 2.0 | 0.00 | 1.46 | 0.02 | 93 | 1017.8 |
| 20260507000303 | 50 | 269 | 0.0 | 3.0 | 0.00 | 1.46 | 0.02 | 93 | 1017.8 |
| 20260506230804 | 49 | 54 | 0.0 | 2.0 | 0.02 | 1.46 | 0.02 | 93 | 1017.9 |
| 20260506220804 | 49 | 66 | 2.0 | 3.0 | 0.02 | 1.45 | 0.00 | 93 | 1017.9 |
| 20260506210804 | 47 | 163 | 0.0 | 0.0 | 0.24 | 1.45 | 1.44 | 92 | 1017.9 |
| 20260506210304 | 50 | 252 | 0.0 | 8.0 | 0.07 | 1.27 | 1.26 | 92 | 1017.9 |
| 20260506200804 | 50 | 46 | 0.0 | 2.0 | 0.00 | 1.20 | 1.20 | 91 | 1017.9 |
| 20260506200303 | 50 | 49 | 2.0 | 3.0 | 0.00 | 1.20 | 1.20 | 91 | 1017.9 |
| 20260506190304 | 51 | 277 | 2.0 | 3.0 | 0.19 | 1.20 | 1.20 | 92 | 1017.9 |
| 20260506180804 | 51 | 59 | 2.0 | 3.0 | 0.36 | 1.02 | 1.01 | 91 | 1018.0 |
| 20260506180304 | 51 | 68 | 3.0 | 5.0 | 0.38 | 1.01 | 1.00 | 91 | 1018.0 |
| 20260506170804 | 52 | 274 | 2.0 | 3.0 | 0.45 | 0.67 | 0.66 | 89 | 1018.0 |
| 20260506170304 | 52 | 285 | 1.0 | 13.0 | 0.43 | 0.63 | 0.62 | 90 | 1018.0 |
| 20260506160801 | 54 | 256 | 2.0 | 3.0 | 0.05 | 0.22 | 0.21 | 90 | 1018.0 |
| 20260506150304 | 58 | 250 | 2.0 | 7.0 | 0.00 | 0.16 | 0.16 | 81 | 1018.0 |
| 20260506140802 | 59 | 88 | 2.0 | 5.0 | 0.00 | 0.16 | 0.16 | 72 | 1018.1 |
| 20260506140302 | 59 | 0 | 3.0 | 10.0 | 0.00 | 0.16 | 0.16 | 71 | 1018.1 |
| 20260506130802 | 59 | 90 | 4.0 | 6.0 | 0.00 | 0.16 | 0.16 | 81 | 1018.0 |
| 20260506130303 | 58 | 148 | 0.0 | 5.0 | 0.00 | 0.16 | 0.16 | 83 | 1018.0 |
| 20260506120303 | 57 | 82 | 1.0 | 2.0 | 0.00 | 0.17 | 0.16 | 86 | 1018.0 |
| 20260506110802 | 56 | 233 | 1.0 | 1.0 | 0.03 | 0.17 | 0.16 | 87 | 1018.0 |
| 20260506110302 | 56 | 197 | 1.0 | 3.0 | 0.03 | 0.17 | 0.16 | 85 | 1018.0 |
| 20260506100803 | 56 | 247 | 1.0 | 2.0 | 0.03 | 0.16 | 0.13 | 86 | 1018.0 |
| 20260506100303 | 57 | 289 | 0.0 | 12.0 | 0.02 | 0.15 | 0.12 | 85 | 1018.0 |
| 20260506080803 | 55 | 94 | 1.0 | 2.0 | 0.00 | 0.17 | 0.10 | 91 | 1018.0 |
| 20260506080302 | 55 | 123 | 1.0 | 2.0 | 0.00 | 0.17 | 0.10 | 91 | 1018.0 |
| 20260506070802 | 54 | 76 | 1.0 | 1.0 | 0.03 | 0.17 | 0.10 | 93 | 1018.0 |
| 20260506070303 | 54 | 76 | 0.0 | 2.0 | 0.03 | 0.17 | 0.10 | 93 | 1018.0 |
| 20260506060803 | 53 | 88 | 1.0 | 1.0 | 0.03 | 0.15 | 0.08 | 93 | 1018.0 |
| 20260506050303 | 53 | 161 | 0.0 | 2.0 | 0.01 | 0.12 | 0.05 | 93 | 1018.0 |
| 20260506040803 | 53 | 64 | 0.0 | 1.0 | 0.00 | 0.11 | 0.04 | 93 | 1018.0 |
| 20260506040303 | 53 | 62 | 1.0 | 3.0 | 0.00 | 0.11 | 0.04 | 93 | 1018.0 |
| 20260506030803 | 53 | 63 | 1.0 | 3.0 | 0.00 | 0.11 | 0.04 | 94 | 1018.0 |
| 20260506030303 | 53 | 73 | 1.0 | 3.0 | 0.01 | 0.11 | 0.04 | 94 | 1018.0 |
| 20260506020803 | 53 | 73 | 1.0 | 3.0 | 0.02 | 0.11 | 0.04 | 94 | 1018.1 |
| 20260506020303 | 53 | 82 | 1.0 | 3.0 | 0.01 | 0.10 | 0.03 | 94 | 1018.1 |
| 20260506010804 | 53 | 170 | 0.0 | 2.0 | 0.01 | 0.10 | 0.03 | 94 | 1018.1 |
| 20260506010304 | 53 | 195 | 0.0 | 2.0 | 0.01 | 0.10 | 0.03 | 94 | 1018.1 |